Regional Weather Roundup
Issued by NWS

Home | Current Version | Previous Version | Text Only | Print | Product List | Glossary On
Versions: 1 2 3 4 5 6 7 8 9 10 11 12 13 14 15 16 17 18 19 20 21 22 23 24 25 26 27 28 29 30 31 32 33 34 35 36 37 38 39 40 41 42 43 44 45 46 47 48 49 50
000
ASUS43 KFSD 291302
RWRSD

WEATHER ROUNDUP FOR SOUTH DAKOTA
NATIONAL WEATHER SERVICE SIOUX FALLS SD
800 AM CDT THU JUN 29 2017

NOTE: "FAIR" INDICATES FEW OR NO CLOUDS BELOW 12,000 FEET WITH NO
SIGNIFICANT WEATHER AND/OR OBSTRUCTIONS TO VISIBILITY.


SDZ001>005-009-010-012>017-291400-
NORTHWEST AND NORTH CENTRAL SOUTH DAKOTA

CITY           SKY/WX    TMP DP  RH WIND       PRES   REMARKS
BUFFALO          N/A     57  55  93 W8        29.80R
FAITH            N/A     58  57  97 E6        29.83S
MOBRIDGE       CLOUDY    65  51  60 N3        29.79R
$$

SDZ012>016-024>037-041>051-057-063-072>074-291400-
SOUTHWEST AND SOUTH CENTRAL SOUTH DAKOTA

CITY           SKY/WX    TMP DP  RH WIND       PRES   REMARKS
RAPID CTY ARPT CLOUDY    61  51  70 NW20G25   29.87R
PIERRE         CLOUDY    58  51  78 NE7       29.79S
CUSTER         CLOUDY    51  41  68 N5        29.96R
ELLSWORTH AFB  LGT RAIN  59  52  75 NW16G26   29.86
PHILIP         CLOUDY    62  51  67 NE6       29.80S
PINE RIDGE     SUNNY     57  54  89 CALM      29.84R
SPEARFISH      FAIR      54  54 100 W9        29.92R
WINNER         FAIR      65  52  62 NW6       29.77F
$$

SDZ004>011-016>023-039-040-291400-
NORTHEAST SOUTH DAKOTA

CITY           SKY/WX    TMP DP  RH WIND       PRES   REMARKS
ABERDEEN       CLOUDY    58  52  80 NE5       29.78R
WATERTOWN      CLOUDY    60  59  96 NE3       29.78F FOG
BROOKINGS      CLOUDY    59  57  93 S5        29.80R
SISSETON         N/A     63  61  93 N7        29.78S
$$

SDZ017-020-022-023-036>040-048>070-291400-
SOUTHEAST SOUTH DAKOTA

CITY           SKY/WX    TMP DP  RH WIND       PRES   REMARKS
SIOUX FALLS    CLOUDY    65  62  90 N5        29.77F
HURON          CLOUDY    58  51  78 CALM      29.80R
CHAMBERLAIN    CLOUDY    63  48  59 NE3       29.79S
MITCHELL       CLOUDY    63  57  81 NE3       29.78F
YANKTON        CLOUDY    66  61  84 NE7       29.75F
$$

ABBREVIATIONS USED IN REMARKS
   TC - TEMPERATURE IN CELSIUS
  WCI - WIND CHILL INDEX
   HX - HEAT INDEX
  VSB - VISIBILITY




USA.gov is the U.S. government's official web portal to all federal, state and local government web resources and services.